FLOCK 3P-48 (42006 NORAD) Tracking and Keplerian Element Data

This shows tracking and keplerian element data for the satellite.

Feedback or suggestion? Click here.




ElementValue
Catalog42006
NameFLOCK 3P-48
Epoch Orbit5522
Epoch Day45.60553574
Epoch Year2018
RAAN111.2166
Inclination97.4664
Eccentricity0.0009664
Argument of Perigee85.9439
Mean Anonmoly274.2903
Mean Motion15.23898551
Decay Rate1.283E-05
L11 42006U 17008BL 18045.60553574 .00001283 00000-0 56050-4 0 9995
L22 42006 97.4664 111.2166 0009664 85.9439 274.2903 15.23898551 55229

Live tracking and technical data element details for FLOCK 3P-48 (NORAD 42006). FLOCK 3P-48 can be tracked NOW for your location showing map with azimuth and elevation plus other details from your city location.

Track the satellite on the map from your city or location and see movement details for azimuth, elevation, latitude, longitude, range, height, and movement on the map or in text.







IsCatalogInMostPopularTable: catalog: 42006, numindb: 184
Update: records affected: 1



GetName: 42006 FLOCK 3P-48

Hit Count: updated at: Thu, 17 Oct 2019 15:03:45 GMT